Weather in Sheridan

United States     45°06′11″N   106°48′02″W
В апреле 2022 года жителям России запретили посещать сайт meteo.paraplan.net по решению Генеральной прокуратуры. Аудитория сайта уменьшилась в 10 раз. Владельцы сайта не видят смысла в поддержке погодного сервера в таких условиях. Сайт будет закрыт в октябре.
temp.,
°C
wind,
m/s
gust,
m/s
humid.,
%
clouds,
%
prec.,
mm/h
press.,
hPa
HPBL,
m
4 october, tue
tue400:00+11w118215 0.1 102110
03:00+10sw11865 0.0 102010
06:00+9sw11891 0.0 102010
09:00+12sw117341 0.0 1020163
12:00+16nnw135347 0.0 10191219
15:00+19nnw46406 0.0 10171960
18:00+18nnw35450 0.0 1017121
21:00+13nnw22600 0.0 102011
5 october, wed
wed500:00+12sw11660 0.0 102010
03:00+11ssw11690 0.0 102110
06:00+10ssw21690 0.0 102110
09:00+14sw11491 0.0 102298
12:00+19ssw10335 0.0 1021579
15:00+22ene1023100 0.0 10181097
18:00+20ne1134100 0.0 101811
21:00+16se223444 0.0 102011
6 october, thu
thu600:00+14s224053 0.0 102110
03:00+13wnw0045100 0.0 102110
06:00+12nne1247100 0.0 102311
09:00+12ne3463100 0.0 1026270
12:00+16ne444762 0.0 1026835
15:00+18ne43424 0.0 10251299
18:00+16ene55480 0.0 1025395
21:00+12e59590 0.0 1027295
7 october, fri
fri700:00+10e22630 0.0 102723
03:00+8ne11650 0.0 102710
06:00+7nne11680 0.0 102710
09:00+10w11560 0.0 1027158
12:00+16n12450 0.0 1025614
15:00+19nne23360 0.0 10231455
18:00+18nne23410 0.0 102247
21:00+13ene11540 0.0 102410
8 october, sat
sat800:00+11se11590 0.0 102410
03:00+10sw11650 0.0 102410
06:00+9ssw11720 0.0 102310
09:00+13ssw11560 0.0 1023106
12:00+19sse22350 0.0 1019832
15:00+22e11225 0.0 10161311
18:00+19ne222814 0.0 101512
21:00+16se2331100 0.0 101514